Location: *
(41.3833°S, 177.8333°W)
Time: 03:02:58
(UTC+00:00)

Cosmos 1975 - Pass Details

Date: 01 April 2020
Orbit: 542 x 561 km, 82.5° (Epoch: 31 May)

Event Time Altitude Azimuth Distance (km) Brightness Sun altitude
Rises 17:27:00 0° 328° (NNW) 2,746 6.1 -8.5°
Reaches altitude 10° 17:29:24 10° 315° (NW) 1,861 5.1 -8.1°
Maximum altitude 17:32:57 28° 255° (WSW) 1,087 3.8 -7.4°
Drops below altitude 10° 17:36:35 10° 195° (SSW) 1,889 5.4 -6.7°
Sets 17:39:02 0° 183° (S) 2,795 6.4 -6.2°
